Weather History for Carbondale, IL

Change the Weather History Date:

Wednesday, December 5, 2012

  Actual Average Record
Temperature  
Mean Temperature 44 °F -  
Max Temperature 57 °F 47 °F 71 °F (1998)
Min Temperature 30 °F 28 °F 6 °F (2002)
Degree Days  
Heating Degree Days 22    
Moisture  
Dew Point 35 °F    
Average Humidity 77    
Maximum Humidity 96    
Minimum Humidity 44    
Precipitation  
Precipitation 0.00 in - - ()
Sea Level Pressure  
Sea Level Pressure 30.29 in    
Wind  
Wind Speed 2 mph (ENE)    
Max Wind Speed 9 mph    
Max Gust Speed -    
Visibility 9 miles    
Events      
Averages and records for this station are not official NWS values.
T = Trace of Precipitation, MM = Missing Value Source: NWS Daily Summary

Daily Weather History Graph

Daily Weather History Graph

Search for Another Location

Airport:

Trip Planner

Search our weather history database for the weather conditions in past years. The results will help you decide how hot, cold, wet, or windy it might be!

Date:

Astronomy

Dec. 05, 2012 Rise Set
Actual Time 6:57 AM CST 4:37 PM CST
Civil Twilight 6:28 AM CST 5:07 PM CST
Nautical Twilight 5:55 AM CST 5:39 PM CST
Astronomical Twilight 5:24 AM CST 6:11 PM CST
Moon 11:21 PM CST (12/5) 11:26 AM CST (12/5)
Length of Visible Light 10h 38m
Length of Day
9h 40m
Waning Gibbous, 59% of the Moon is Illuminated
Dec 5
Waning Gibbous
Dec 6
Last Quarter
Dec 13
New
Dec 19
First Quarter
Dec 28
Full

Hourly Weather History & Observations

Time (CST) Temp. Windchill Dew Point Humidity Pressure Visibility Wind Dir Wind Speed Gust Speed Precip Events Conditions
12:52 AM 36.0 °F 33.3 °F 34.0 °F 93% 30.30 in 10.0 mi NNW 3.5 mph - N/A   Clear
1:20 AM 33.8 °F - 32.0 °F 93% 30.29 in 2.0 mi Calm Calm - N/A   Clear
1:29 AM 35.6 °F - 33.8 °F 93% 30.29 in 10.0 mi Calm Calm - N/A   Clear
1:52 AM 34.0 °F - 32.0 °F 92% 30.30 in 10.0 mi Calm Calm - N/A   Clear
2:32 AM 33.8 °F - 32.0 °F 93% 30.30 in 2.0 mi Calm Calm - N/A   Clear
2:41 AM 33.8 °F - 32.0 °F 93% 30.30 in 3.0 mi Calm Calm - N/A   Clear
2:52 AM 34.0 °F - 33.1 °F 96% 30.31 in 10.0 mi Calm Calm - N/A   Clear
3:52 AM 32.0 °F - 30.9 °F 96% 30.32 in 10.0 mi Calm Calm - N/A   Clear
4:52 AM 32.0 °F - 30.0 °F 92% 30.34 in 10.0 mi Calm Calm - N/A   Clear
5:52 AM 32.0 °F - 30.0 °F 92% 30.35 in 9.0 mi Calm Calm - N/A   Clear
6:52 AM 30.9 °F - 30.0 °F 96% 30.37 in 9.0 mi Calm Calm - N/A   Clear
8:52 AM 41.0 °F - 37.9 °F 89% 30.38 in 9.0 mi Calm Calm - N/A   Clear
9:52 AM 48.0 °F - 39.9 °F 74% 30.38 in 10.0 mi East 4.6 mph - N/A   Clear
10:52 AM 52.0 °F - 39.9 °F 63% 30.36 in 10.0 mi East 8.1 mph - N/A   Clear
11:52 AM 54.0 °F - 39.0 °F 57% 30.34 in 10.0 mi East 4.6 mph - N/A   Clear
12:52 PM 55.9 °F - 37.9 °F 51% 30.31 in 10.0 mi Variable 6.9 mph - N/A   Clear
1:52 PM 57.9 °F - 36.0 °F 44% 30.29 in 10.0 mi East 9.2 mph - N/A   Clear
2:52 PM 57.9 °F - 36.0 °F 44% 30.27 in 10.0 mi ESE 5.8 mph - N/A   Clear
3:52 PM 55.0 °F - 39.0 °F 55% 30.26 in 10.0 mi East 4.6 mph - N/A   Clear
4:52 PM 52.0 °F - 37.0 °F 57% 30.25 in 10.0 mi ENE 3.5 mph - N/A   Clear
5:52 PM 48.9 °F - 36.0 °F 61% 30.25 in 10.0 mi NE 5.8 mph - N/A   Clear
6:52 PM 46.9 °F - 37.0 °F 68% 30.24 in 10.0 mi ENE 5.8 mph - N/A   Clear
7:52 PM 45.0 °F 41.8 °F 36.0 °F 71% 30.24 in 10.0 mi ENE 5.8 mph - N/A   Clear
8:52 PM 43.0 °F - 34.0 °F 71% 30.22 in 10.0 mi Calm Calm - N/A   Clear
9:52 PM 39.9 °F - 35.1 °F 83% 30.20 in 10.0 mi Calm Calm - N/A   Clear
10:52 PM 37.0 °F 33.3 °F 33.1 °F 86% 30.18 in 10.0 mi East 4.6 mph - N/A   Clear
11:52 PM 35.1 °F - 32.0 °F 89% 30.17 in 10.0 mi Calm Calm - N/A   Clear